星链-31523 (STARLINK-31523 )

导读 | 星芒AI

STARLINK-31523 是 SpaceX Starlink 项目中的一颗低轨卫星,属于其第二代卫星群(Gen2)的一部分。该卫星于2023年发射,旨在为全球提供高速互联网服务。Starlink 卫星部署在约550公里高度的近地轨道上,具备先进通信技术,支持低延迟和高带宽连接。该项目致力于改善偏远地区的网络覆盖,并推动全球互联网普及。STARLINK-31523 的运行有助于增强 Starlink 网络的稳定性和服务能力。

基本信息
目录编号:
59220
目录名称:
STARLINK-31523
国际标识:
2024-046V
轨道中心:
EARTH
卫星名称:
星链-31523
卫星全名:
星链-31523 (STARLINK-31523 )
卫星状态:
在轨 (已飞行649 天)
发射日期:
2024-03-11 UTC
国别 :
美国 (US)
星等 :
--
轨道信息
数据来源 国际轨道数据 AOE轨道数据
星历时间 2025-12-18T23:53:38+0800
1天前
查看轨道信息
2025-12-19T04:00:00+0800
1天前
查看轨道信息
半长轴 6853.353km 6853.301km
偏心率 0.000122 0.0001359
轨道倾角 53.160° 53.159°
近地点辐角 98.920° 85.995°
升交点赤经 171.719° 170.926°
平近点角 261.194° 137.162°
近地点 474.381km 474.234km
远地点 476.055km 476.098km
周期 94.105分钟 94.104分钟
每日圈数 15.301997 15.302172
详细信息
固有亮度:
5
最大亮度:
0.3
卫星平台:
Starlink v2.0 mini
覆盖范围:
全球
运营商:
太空探索技术公司
运营商所在国:
美国
制造商(研发单位):
太空探索技术公司
制造商所在国:
美国
使用方式:
暂无
卫星简介
星链(Starlink)计划是由太空探索技术公司(SpaceX)提出的一个巨型低轨卫星互联网星座项目,计划在2019年至2024年间在太空搭建由约1.2万颗卫星组成的“星链”网络,其中1584颗将部署在地球上空550千米处的近地轨道,并从2020年开始工作。该卫星仍在工作。
2D轨道图
3D轨道图
轨道高度分析图
轨道倾角分析图
轨道综合分析图
查看轨道综合分析图